Flag for U.S.A. Weather past 2 weeks in Youngstown, Ohio, U.S.A.

Now
62 °F

Clear.


Feels Like: 62 °F
Forecast: 63 / 85 °F
Wind: No wind

Location: Youngstown-Warren Regional Airport

Current Time: Jul 31, 2015 at 6:19:31 AM

Latest Report: Jul 31, 2015 at 5:51 AM


Visibility: 10 mi

Pressure: 29.95 "Hg

Humidity: 86%

Dew point: 58 °F

Location of YoungstownLocation

Historic Weather in Youngstown — Graph

°F

Youngstown temperature yesterday

Maximum temperature yesterday: 84 °F (at 4:51 PM)
Minimum temperature yesterday: 65 °F (at 5:51 AM)
Average temperature yesterday: 75 °F

Past Weeks' High & Low Weather Summary

 TemperatureHumidityPressure
High89 °F (Jul 28, 4:51 PM)97% (Jul 18, 4:51 AM)30.11 "Hg (Jul 18, 4:51 AM)
Low47 °F (Jul 16, 4:51 AM)32% (Jul 23, 4:51 PM)29.69 "Hg (Jul 21, 4:51 AM)
Average73 °F70%29.94 "Hg
* Reported Jul 16 4:51 AM — Jul 31 4:51 AM, Youngstown, Weather by CustomWeather, © 2015

Note: Actual official high and low records may vary slightly from our data, if they occured in-between our weather recording intervals... More about our weather records

Advertising

Youngstown weather history for previous 24 hours

 ConditionsComfort  
Time TempWeatherWind HumidityBarometerVisibility
4:51 AM
Fri, Jul 31
62 °FClear.5 mph86%29.95 "Hg10 mi
3:51 AM63 °FClear.No wind84%29.96 "Hg10 mi
2:51 AM65 °FPassing clouds.No wind78%29.96 "Hg10 mi
1:51 AM66 °FPassing clouds.6 mph75%29.96 "Hg10 mi
12:51 AM66 °FPassing clouds.6 mph75%29.97 "Hg10 mi
11:51 PM
Thu, Jul 30
67 °FClear.6 mph73%29.96 "Hg10 mi
10:51 PM68 °FPassing clouds.5 mph73%29.96 "Hg10 mi
9:51 PM70 °FPassing clouds.3 mph68%29.96 "Hg10 mi
8:51 PM74 °FPassing clouds.7 mph57%29.94 "Hg10 mi
7:51 PM79 °FPassing clouds.8 mph45%29.93 "Hg10 mi
6:51 PM81 °FPassing clouds.10 mph39%29.93 "Hg10 mi
5:51 PM82 °FPassing clouds.15 mph38%29.93 "Hg10 mi
4:51 PM84 °FScattered clouds.12 mph38%29.93 "Hg10 mi
3:51 PM82 °FPartly sunny.8 mph43%29.93 "Hg10 mi
2:51 PM83 °FScattered clouds.12 mph40%29.94 "Hg10 mi
1:51 PM83 °FPartly sunny.12 mph41%29.95 "Hg10 mi
12:51 PM81 °FPartly sunny.9 mph45%29.96 "Hg10 mi
11:51 AM81 °FPartly sunny.12 mph47%29.96 "Hg10 mi
10:51 AM79 °FPassing clouds.12 mph58%29.95 "Hg10 mi
9:51 AM75 °FPassing clouds.10 mph69%29.95 "Hg10 mi
8:51 AM72 °FPartly sunny.6 mph76%29.95 "Hg10 mi
7:51 AM70 °FPartly sunny.5 mph81%29.94 "Hg10 mi
6:51 AM65 °FPassing clouds.No wind94%29.94 "Hg10 mi
Weather by CustomWeather, © 2015

See weather overviewHow to use our weather pages